Temp
10 10 9 9 9 8 8 8 8 7 6 5 3 3 3 1 2 3 1 2 3 3 2 1 1 1 2 2 2 2 2 2 1 -0 -1 -2 -2 -1
9 9 9 8 8 8 8 7 7 6 4 4 5 3 2 2 1 3 1 1 2 1 1 0 0 1 1 1 1 1 2 1 -1 -3 -3 -3 -2 -2
8 8 8 8 7 7 7 7 6 5 2 2 2 2 3 3 2 2 0 1 0 -0 0 0 -1 -0 1 1 1 1 -0 -3 -4 -4 -4 -3 -3 -3
7 7 7 7 6 6 5 4 4 3 3 2 2 2 2 2 1 0 -0 -0 -0 0 0 -1 0 0 0 -1 -1 -2 -3 -4 -5 -5 -5 -4 -4 -3
6 5 5 5 5 4 3 2 2 1 1 1 1 1 1 -0 -1 -1 -1 -1 -0 -0 -1 -2 -1 -1 -2 -2 -2 -4 -4 -4 -5 -6 -5 -5 -5 -5
6 5 5 3 2 2 1 1 1 1 1 0 -0 -1 -1 -2 -1 -1 -1 -2 -2 -2 -3 -2 -2 -3 -2 -3 -3 -4 -4 -4 -6 -6 -6 -6 -6 -6
3 2 3 1 1 0 0 0 0 0 -0 -1 -0 -1 -1 -2 -2 -3 -4 -4 -3 -3 -4 -2 -4 -3 -3 -3 -3 -3 -4 -5 -6 -6 -6 -6 -6 -6
1 -0 2 -0 -0 -1 -1 -1 -1 -2 -1 -1 -2 -2 -3 -4 -5 -5 -5 -5 -4 -4 -5 -3 -5 -3 -3 -3 -3 -3 -4 -5 -6 -6 -6 -6 -6 -6
-1 -1 -1 -1 -1 -2 -1 -2 -2 -3 -3 -3 -4 -4 -4 -6 -6 -5 -6 -6 -6 -5 -6 -3 -4 -3 -3 -3 -3 -4 -4 -4 -4 -4 -4 -6 -6 -6
-1 -1 -1 -2 -3 -3 -3 -3 -4 -4 -4 -5 -4 -4 -5 -6 -6 -6 -6 -6 -6 -6 -6 -4 -4 -3 -3 -2 -3 -3 -4 -4 -4 -4 -5 -6 -7 -7
-1 -1 -3 -3 -3 -3 -4 -4 -5 -6 -6 -6 -6 -6 -6 -6 -6 -6 -6 -7 -6 -5 -5 -5 -4 -4 -3 -2 -3 -3 -4 -4 -5 -5 -5 -7 -7 -7
-3 -4 -4 -4 -4 -4 -4 -5 -6 -7 -6 -7 -7 -7 -7 -6 -6 -7 -7 -6 -7 -6 -6 -6 -6 -7 -6 -3 -3 -4 -4 -4 -4 -5 -5 -5 -6 -7
-4 -5 -4 -5 -5 -5 -5 -6 -6 -6 -6 -7 -7 -6 -6 -6 -6 -6 -6 -6 -6 -7 -6 -8 -6 -6 -8 -7 -3 -3 -4 -4 -4 -4 -5 -5 -6 -6
-5 -6 -6 -6 -6 -6 -6 -6 -6 -7 -7 -7 -7 -6 -6 -6 -6 -6 -6 -6 -7 -7 -6 -7 -8 -7 -7 -7 -7 -4 -4 -4 -4 -4 -5 -6 -6 -6
-6 -6 -6 -7 -7 -7 -7 -7 -7 -7 -7 -7 -7 -7 -7 -6 -6 -6 -6 -6 -6 -6 -6 -6 -7 -7 -8 -8 -9 -7 -7 -5 -5 -6 -6 -6 -6 -6
-7 -7 -7 -7 -7 -7 -7 -7 -7 -7 -7 -7 -7 -7 -7 -7 -6 -6 -6 -7 -6 -5 -6 -6 -7 -8 -9 -9 -10 -9 -6 -9 -6 -6 -7 -7 -6 -6
-7 -7 -7 -7 -8 -8 -8 -8 -7 -7 -7 -7 -7 -7 -6 -7 -7 -7 -7 -7 -8 -7 -6 -6 -7 -8 -9 -9 -9 -7 -7 -7 -8 -8 -8 -8 -8 -7
-7 -8 -8 -8 -8 -8 -8 -8 -8 -8 -7 -7 -7 -7 -7 -7 -7 -7 -7 -7 -7 -7 -7 -7 -8 -9 -9 -7 -8 -7 -8 -8 -8 -8 -8 -8 -8 -7
-8 -8 -8 -8 -8 -8 -8 -8 -7 -7 -7 -7 -7 -7 -7 -8 -8 -8 -8 -8 -8 -8 -8 -8 -10 -10 -10 -9 -8 -8 -9 -8 -7 -7 -7 -7 -7 -7
-8 -8 -8 -8 -8 -8 -8 -8 -8 -7 -7 -8 -8 -8 -8 -8 -9 -9 -9 -9 -9 -9 -9 -9 -9 -9 -9 -10 -10 -8 -6 -7 -7 -7 -7 -7 -7 -6
-9 -9 -9 -9 -8 -9 -9 -8 -8 -8 -8 -8 -8 -8 -8 -9 -9 -9 -9 -9 -10 -10 -9 -8 -7 -8 -10 -9 -10 -9 -6 -7 -7 -7 -7 -8 -8 -7
-9 -9 -9 -9 -9 -9 -9 -8 -8 -8 -8 -8 -8 -8 -9 -9 -9 -9 -9 -9 -9 -10 -9 -8 -8 -8 -10 -10 -10 -9 -7 -7 -7 -7 -7 -7 -7 -8
-9 -9 -9 -9 -9 -9 -9 -9 -9 -9 -9 -9 -9 -9 -9 -9 -9 -9 -9 -9 -10 -9 -9 -9 -9 -9 -9 -9 -10 -9 -8 -8 -7 -7 -7 -7 -7 -6
Height
1478 1479 1480 1480 1481 1482 1482 1485 1487 1487 1487 1490 1487 1490 1491 1493 1495 1496 1501 1503 1501 1505 1503 1506 1506 1506 1505 1503 1503 1503 1502 1501 1501 1499 1498 1499 1500 1500
1472 1472 1473 1474 1474 1476 1477 1477 1478 1479 1480 1481 1481 1482 1482 1492 1492 1490 1494 1494 1493 1494 1493 1498 1499 1496 1495 1495 1494 1494 1493 1492 1491 1491 1491 1492 1493 1493
1467 1468 1467 1468 1468 1468 1468 1468 1469 1470 1473 1475 1478 1480 1479 1475 1482 1484 1488 1488 1487 1488 1488 1490 1491 1488 1488 1487 1485 1485 1484 1484 1483 1483 1481 1484 1485 1485
1463 1463 1463 1463 1464 1463 1463 1462 1463 1463 1464 1469 1468 1476 1472 1473 1476 1479 1480 1482 1482 1484 1482 1483 1481 1480 1479 1479 1477 1476 1476 1476 1476 1476 1475 1475 1476 1477
1457 1459 1459 1459 1459 1459 1460 1461 1462 1462 1464 1465 1466 1465 1466 1469 1472 1475 1476 1476 1475 1475 1475 1474 1473 1472 1472 1471 1470 1471 1469 1469 1468 1468 1468 1466 1467 1467
1453 1455 1454 1456 1457 1457 1459 1460 1460 1460 1460 1461 1461 1462 1465 1468 1469 1470 1470 1468 1469 1469 1469 1467 1466 1465 1465 1464 1465 1464 1463 1462 1461 1461 1461 1460 1459 1458
1449 1452 1451 1454 1456 1457 1458 1458 1459 1459 1459 1461 1461 1462 1462 1463 1464 1464 1464 1464 1463 1463 1461 1462 1460 1461 1460 1460 1458 1458 1457 1456 1456 1455 1454 1453 1452 1451
1451 1454 1449 1454 1456 1458 1458 1457 1457 1457 1456 1457 1459 1458 1458 1459 1459 1459 1459 1459 1458 1458 1456 1456 1456 1455 1455 1454 1453 1452 1451 1450 1449 1448 1447 1445 1443 1442
1454 1453 1453 1455 1456 1457 1457 1456 1456 1455 1455 1456 1457 1455 1455 1456 1456 1457 1456 1456 1455 1455 1453 1448 1450 1449 1449 1448 1447 1446 1445 1444 1443 1441 1438 1436 1435 1434
1455 1454 1454 1455 1456 1455 1455 1454 1454 1453 1453 1453 1454 1453 1453 1453 1453 1453 1452 1452 1451 1451 1450 1443 1445 1444 1443 1443 1442 1441 1440 1439 1436 1434 1431 1429 1427 1426
1457 1456 1455 1455 1455 1454 1453 1452 1451 1451 1451 1450 1450 1450 1449 1449 1449 1449 1449 1448 1446 1446 1446 1442 1441 1439 1438 1437 1437 1435 1433 1431 1428 1425 1423 1421 1419 1417
1456 1455 1455 1454 1453 1452 1450 1449 1449 1448 1448 1447 1447 1446 1445 1445 1445 1445 1445 1445 1445 1442 1442 1441 1439 1437 1431 1428 1428 1427 1426 1424 1420 1417 1415 1412 1409 1407
1456 1454 1453 1451 1450 1449 1448 1447 1446 1445 1444 1443 1443 1442 1442 1442 1442 1442 1442 1441 1441 1440 1440 1439 1435 1434 1430 1423 1420 1419 1417 1415 1412 1408 1406 1403 1400 1398
1454 1452 1450 1449 1448 1446 1445 1444 1443 1442 1442 1442 1441 1440 1440 1439 1439 1438 1438 1437 1437 1436 1436 1435 1431 1430 1426 1420 1415 1411 1410 1407 1403 1399 1396 1394 1392 1390
1451 1449 1448 1446 1445 1444 1443 1442 1441 1440 1440 1439 1440 1439 1438 1437 1435 1434 1433 1432 1431 1431 1431 1430 1427 1425 1422 1416 1411 1405 1400 1397 1395 1392 1388 1384 1382 1380
1449 1447 1445 1444 1442 1441 1440 1440 1439 1438 1437 1437 1436 1436 1435 1434 1432 1430 1428 1427 1425 1424 1424 1423 1421 1418 1415 1411 1407 1398 1397 1393 1387 1384 1379 1375 1373 1372
1446 1445 1443 1441 1440 1439 1438 1438 1437 1436 1435 1434 1433 1432 1431 1429 1428 1426 1424 1422 1419 1417 1416 1415 1414 1411 1408 1405 1399 1394 1388 1384 1381 1376 1372 1366 1364 1362
1444 1442 1440 1439 1438 1437 1436 1436 1435 1434 1432 1431 1430 1429 1427 1426 1424 1422 1420 1417 1413 1411 1409 1408 1406 1403 1400 1395 1393 1385 1381 1376 1372 1368 1365 1358 1353 1354
1441 1440 1438 1437 1436 1435 1434 1433 1432 1431 1430 1429 1427 1425 1423 1421 1419 1416 1414 1411 1407 1405 1402 1401 1399 1398 1392 1386 1384 1383 1375 1371 1366 1361 1358 1353 1345 1342
1438 1437 1435 1434 1433 1432 1431 1429 1428 1427 1425 1424 1422 1420 1418 1416 1413 1411 1408 1405 1401 1398 1394 1393 1391 1389 1386 1380 1372 1367 1370 1363 1359 1352 1347 1343 1338 1333
1435 1434 1432 1431 1429 1428 1427 1425 1424 1422 1421 1418 1417 1415 1413 1410 1407 1404 1402 1399 1397 1393 1387 1384 1383 1381 1377 1372 1363 1356 1354 1355 1351 1345 1340 1335 1328 1324
1431 1429 1428 1426 1425 1424 1423 1421 1419 1418 1416 1414 1412 1409 1407 1404 1401 1398 1395 1391 1388 1384 1379 1375 1373 1370 1367 1363 1354 1347 1342 1340 1338 1336 1334 1330 1324 1314
1428 1426 1424 1423 1421 1419 1418 1416 1414 1412 1410 1408 1405 1403 1400 1396 1394 1390 1386 1383 1379 1375 1371 1366 1363 1361 1356 1352 1346 1339 1334 1330 1327 1322 1318 1317 1314 1308
Wind_Speed
38 41 44 44 39 40 39 39 38 31 32 33 28 33 35 34 36 35 34 34 31 36 31 28 29 29 32 34 34 33 33 33 31 29 25 23 23 23
33 36 37 40 41 41 40 40 40 38 27 22 26 25 23 29 33 28 29 33 35 31 29 29 30 30 31 32 31 32 32 31 28 24 22 22 23 23
27 30 30 34 35 37 37 37 34 30 24 20 21 23 20 21 23 26 29 28 27 26 27 28 28 29 30 31 30 29 29 26 24 23 20 21 22 23
21 24 24 27 30 28 26 23 20 17 17 20 18 20 18 19 22 23 22 24 24 25 23 25 28 29 25 24 25 25 24 23 21 21 20 21 22 23
16 19 18 21 22 19 15 12 10 10 12 13 15 14 15 17 18 18 19 21 22 21 22 20 22 23 24 23 22 21 20 21 21 22 22 22 23 24
12 13 13 12 9 7 8 9 9 9 8 8 8 8 10 11 14 15 15 15 16 17 21 20 22 21 18 17 17 19 20 20 20 21 21 22 23 23
5 6 4 4 5 6 6 7 8 8 8 8 9 10 10 10 10 11 14 17 18 19 22 17 17 15 16 16 18 18 18 18 19 21 22 23 24 25
5 5 3 3 4 5 5 6 7 8 9 9 9 8 8 9 10 14 17 19 23 19 13 17 16 15 13 14 14 14 17 19 21 22 23 24 25 25
4 3 3 0 2 4 6 7 7 6 6 9 10 9 9 11 14 17 19 22 21 16 17 21 14 15 12 14 15 18 18 17 17 19 21 23 23 25
3 2 1 1 3 4 5 6 7 7 7 9 11 11 13 15 17 17 17 18 17 15 13 23 17 16 17 17 17 13 13 17 19 19 21 22 23 24
4 4 4 5 6 7 7 8 8 7 9 11 10 11 14 15 15 15 14 15 17 16 13 16 17 24 23 20 13 19 23 24 22 22 22 22 23 25
8 7 7 8 9 10 10 10 11 11 11 12 12 11 9 8 8 10 11 14 15 17 6 14 21 24 22 22 31 30 27 26 24 24 23 22 23 25
8 10 11 12 12 11 11 10 11 13 12 12 10 7 6 7 9 10 12 15 16 19 17 18 24 26 26 32 36 33 31 30 29 27 25 22 21 20
12 13 13 14 13 12 12 11 11 11 9 8 7 7 8 10 12 14 16 17 19 21 19 20 26 25 28 34 39 38 34 32 31 28 24 23 23 23
12 13 12 12 12 11 10 8 8 7 6 7 8 9 12 13 14 16 17 17 19 20 19 19 22 24 27 32 36 39 39 38 28 31 27 27 26 25
15 14 13 12 11 9 7 7 6 6 7 9 10 12 14 15 16 16 17 17 21 22 21 20 20 21 25 29 32 38 35 35 37 32 33 33 29 25
14 12 11 10 10 8 7 7 7 8 10 11 13 14 15 17 17 17 18 20 23 26 26 22 21 22 24 27 32 33 34 35 35 36 36 38 35 31
14 12 11 11 11 10 10 10 11 13 13 14 14 16 18 19 20 20 20 22 24 24 25 24 23 25 30 32 28 32 34 36 37 37 36 38 38 33
13 13 13 12 12 11 12 13 13 13 14 15 17 17 19 20 22 23 23 24 25 26 26 25 25 26 30 32 34 28 29 35 34 35 33 34 39 37
14 14 13 13 13 13 14 15 15 15 16 17 19 19 20 22 23 25 25 26 28 29 30 29 28 27 28 33 40 40 31 32 33 37 38 38 39 37
14 14 14 14 14 15 16 17 18 18 19 20 21 22 22 23 25 26 27 26 26 28 32 32 29 26 29 33 37 40 36 34 33 36 39 41 43 41
15 15 15 15 16 16 17 19 20 21 21 22 23 24 24 25 27 28 29 30 30 31 33 34 31 29 31 32 38 41 41 40 38 41 37 35 37 38
16 17 17 17 17 17 18 19 21 22 23 24 25 26 27 29 29 31 31 31 32 32 34 36 34 32 36 35 37 41 44 40 45 43 41 36 37 33
Wind_Direction
264 264 259 253 253 255 253 251 249 244 240 241 236 234 237 233 239 249 249 260 261 265 268 266 271 276 283 285 287 288 286 286 287 286 284 282 280 279
266 266 261 257 256 257 257 255 250 250 247 253 248 251 244 248 254 263 257 255 264 267 276 277 282 284 284 284 285 285 285 285 284 283 282 280 277 275
268 265 262 265 264 255 253 253 253 252 246 244 250 247 242 250 256 259 254 264 269 272 277 280 279 280 281 284 285 284 285 284 282 281 280 277 275 274
268 267 264 262 259 259 261 265 264 259 257 250 240 238 248 256 256 258 265 272 277 278 280 276 278 281 285 286 288 286 284 284 284 282 279 276 275 276
268 260 260 262 263 265 267 268 260 248 233 236 234 240 243 248 254 264 269 267 271 273 272 276 287 291 288 288 287 288 287 285 282 280 276 276 275 273
259 262 269 260 257 252 248 250 252 253 255 252 248 245 254 261 264 269 271 270 269 279 287 292 290 283 286 288 289 286 286 286 286 284 282 282 281 278
207 215 211 216 219 231 244 253 265 268 274 270 267 260 260 265 276 281 286 285 291 295 294 296 286 290 290 292 290 292 293 291 287 283 282 279 277 276
129 149 118 203 230 245 253 269 266 264 262 266 265 267 265 273 268 267 277 291 296 302 299 288 294 293 300 300 303 309 307 296 288 284 281 280 280 278
97 89 101 37 283 268 260 264 273 271 277 270 265 268 267 261 264 270 275 280 283 295 301 300 310 307 314 309 314 313 308 302 299 297 291 285 282 279
36 10 280 289 271 279 291 289 289 288 277 273 275 273 263 266 271 278 281 288 294 301 303 299 318 315 316 314 319 313 314 310 309 303 294 289 285 282
0 336 332 306 298 288 288 289 297 294 289 290 286 280 274 271 272 273 275 281 294 303 306 291 319 318 317 318 319 323 326 324 315 302 293 289 288 285
343 333 317 308 304 302 298 290 287 283 284 284 284 288 286 285 282 282 289 290 297 309 309 310 313 321 323 323 324 323 323 325 321 315 306 297 292 286
321 316 315 318 318 312 305 297 285 290 291 287 288 288 282 282 283 283 285 287 288 283 295 296 308 315 310 311 315 320 321 323 321 316 308 301 294 289
317 316 317 316 315 311 304 296 292 290 290 282 282 286 284 281 280 281 281 276 276 283 292 291 293 304 303 304 305 315 317 319 321 319 315 306 300 297
322 322 319 317 314 310 305 300 292 288 283 287 293 294 294 298 298 296 289 280 279 282 286 287 290 296 295 297 301 308 315 322 321 321 319 313 307 304
320 318 316 314 313 311 304 296 287 282 286 291 293 295 298 299 302 305 300 293 289 290 292 294 297 299 299 298 300 304 314 307 320 322 322 316 311 305
319 317 313 314 315 310 304 297 290 288 288 290 295 302 305 308 310 311 305 298 291 294 295 299 305 302 301 303 303 307 313 313 319 319 318 314 312 312
318 316 314 311 308 301 294 290 289 291 294 296 300 303 304 305 307 309 309 308 302 298 297 300 304 304 308 313 310 310 311 311 316 315 311 306 306 312
311 310 309 305 302 296 291 289 292 293 296 299 302 305 308 310 311 312 314 313 312 308 302 301 298 299 306 295 311 306 295 304 314 314 317 311 309 314
310 311 310 304 300 297 294 293 294 295 299 304 306 308 310 312 312 312 314 313 312 312 309 305 301 298 294 297 300 301 305 305 311 312 317 317 311 311
310 307 308 307 303 298 296 295 295 298 301 304 306 308 310 311 313 315 314 311 307 305 308 307 307 302 294 301 298 299 312 313 310 307 309 308 305 304
315 310 306 303 301 299 299 301 301 302 303 305 306 308 310 311 311 312 312 310 311 311 310 311 311 308 306 300 293 300 309 315 313 308 303 298 300 287
313 309 307 306 307 305 303 301 299 300 302 304 305 306 307 308 310 311 311 310 310 310 312 313 312 309 309 305 299 297 299 300 306 304 301 302 307 300